,,PressureMeas_1m,,PRMeasQMR101_1,,RHStat155_1m_1,,SRMeasQMS101R_1m,,TAStat155_1m_1,,GenWind_1,,GenWind_1,
2017-04-11, 00:00:06,VALID,917.596,VALID,0.0,VALID,92.751,VALID,-0.005,VALID,19.979,VALID,346.0,VALID,0.931,
2017-04-11, 00:01:06,VALID,917.551,VALID,0.0,VALID,92.665,VALID,-0.004,VALID,19.917,VALID,5.0,VALID,1.341,
2017-04-11, 00:02:06,VALID,917.513,VALID,0.0,VALID,92.619,VALID,-0.015,VALID,19.837,VALID,359.0,VALID,1.197,
2017-04-11, 00:03:06,VALID,917.493,VALID,0.0,VALID,93.026,VALID,0.0,VALID,19.795,VALID,337.0,VALID,1.069,
2017-04-11, 00:04:06,VALID,917.489,VALID,0.0,VALID,93.015,VALID,-0.002,VALID,19.791,VALID,296.0,VALID,0.848,
2017-04-11, 00:05:06,VALID,917.466,VALID,0.0,VALID,93.645,VALID,-0.011,VALID,19.837,VALID,283.0,VALID,0.36,
2017-04-11, 00:06:06,VALID,917.466,VALID,0.0,VALID,94.296,VALID,-0.006,VALID,19.804,VALID,324.0,VALID,0.718,
2017-04-11, 00:07:06,VALID,917.452,VALID,0.0,VALID,93.996,VALID,0.004,VALID,19.75,VALID,321.0,VALID,0.494,
2017-04-11, 00:08:06,VALID,917.436,VALID,0.0,VALID,94.264,VALID,-0.003,VALID,19.728,VALID,276.0,VALID,0.379,
2017-04-11, 00:09:06,VALID,917.417,VALID,0.0,VALID,94.235,VALID,-0.001,VALID,19.697,VALID,343.0,VALID,0.386,
2017-04-11, 00:10:06,VALID,917.413,VALID,0.0,VALID,94.305,VALID,0.01,VALID,19.669,VALID,321.0,VALID,0.285,
2017-04-11, 00:11:06,VALID,917.42,VALID,0.0,VALID,94.457,VALID,-0.003,VALID,19.675,VALID,282.0,VALID,0.67,
2017-04-11, 00:12:06,VALID,917.426,VALID,0.0,VALID,95.386,VALID,0.004,VALID,19.669,VALID,261.0,VALID,0.298,
2017-04-11, 00:13:06,VALID,917.397,VALID,0.0,VALID,95.883,VALID,0.001,VALID,19.612,VALID,291.0,VALID,0.197,
2017-04-11, 00:14:06,VALID,917.395,VALID,0.0,VALID,95.735,VALID,0.007,VALID,19.564,VALID,346.0,VALID,1.276,
2017-04-11, 00:15:06,VALID,917.376,VALID,0.0,VALID,94.531,VALID,0.014,VALID,19.635,VALID,354.0,VALID,0.659,
2017-04-11, 00:16:06,VALID,917.374,VALID,0.0,VALID,93.95,VALID,0.004,VALID,19.681,VALID,4.0,VALID,0.663,
2017-04-11, 00:17:06,VALID,917.362,VALID,0.0,VALID,93.78,VALID,-0.012,VALID,19.672,VALID,356.0,VALID,0.381,
2017-04-11, 00:18:06,VALID,917.371,VALID,0.0,VALID,93.625,VALID,-0.008,VALID,19.668,VALID,315.0,VALID,0.519,
2017-04-11, 00:19:06,VALID,917.355,VALID,0.0,VALID,94.423,VALID,0.003,VALID,19.666,VALID,260.0,VALID,0.422,
2017-04-11, 00:20:06,VALID,917.353,VALID,0.0,VALID,95.546,VALID,0.013,VALID,19.63,VALID,266.0,VALID,0.476,
2017-04-11, 00:21:06,VALID,917.381,VALID,0.0,VALID,96.212,VALID,0.012,VALID,19.561,VALID,260.0,VALID,0.653,
2017-04-11, 00:22:06,VALID,917.383,VALID,0.0,VALID,96.772,VALID,0.007,VALID,19.507,VALID,262.0,VALID,0.138,
2017-04-11, 00:23:06,VALID,917.384,VALID,0.0,VALID,97.058,VALID,0.016,VALID,19.483,VALID,271.0,VALID,0.072,
2017-04-11, 00:24:06,VALID,917.395,VALID,0.0,VALID,97.062,VALID,0.014,VALID,19.443,VALID,359.0,VALID,0.498,
2017-04-11, 00:25:06,VALID,917.402,VALID,0.0,VALID,96.789,VALID,0.011,VALID,19.392,VALID,326.0,VALID,0.457,
2017-04-11, 00:26:06,VALID,917.425,VALID,0.0,VALID,96.746,VALID,0.004,VALID,19.426,VALID,251.0,VALID,0.581,
2017-04-11, 00:27:06,VALID,917.436,VALID,0.0,VALID,97.053,VALID,0.019,VALID,19.447,VALID,250.0,VALID,0.225,
2017-04-11, 00:28:06,VALID,917.446,VALID,0.0,VALID,97.235,VALID,0.013,VALID,19.446,VALID,250.0,VALID,0.269,
2017-04-11, 00:29:06,VALID,917.463,VALID,0.0,VALID,97.27,VALID,0.015,VALID,19.424,VALID,250.0,VALID,0.048,
2017-04-11, 00:30:06,VALID,917.464,VALID,0.0,VALID,97.335,VALID,0.022,VALID,19.411,VALID,254.0,VALID,0.063,
2017-04-11, 00:31:06,VALID,917.48,VALID,0.0,VALID,97.349,VALID,0.002,VALID,19.398,VALID,277.0,VALID,0.018,
2017-04-11, 00:32:06,VALID,917.49,VALID,0.0,VALID,97.273,VALID,0.014,VALID,19.373,VALID,277.0,VALID,0.0,
2017-04-11, 00:33:06,VALID,917.49,VALID,0.0,VALID,97.37,VALID,0.014,VALID,19.373,VALID,260.0,VALID,0.078,
2017-04-11, 00:34:06,VALID,917.506,VALID,0.0,VALID,97.435,VALID,0.009,VALID,19.383,VALID,257.0,VALID,0.21,
2017-04-11, 00:35:06,VALID,917.493,VALID,0.0,VALID,97.441,VALID,0.013,VALID,19.367,VALID,257.0,VALID,0.241,
2017-04-11, 00:36:06,VALID,917.467,VALID,0.0,VALID,97.473,VALID,0.006,VALID,19.359,VALID,260.0,VALID,0.036,
2017-04-11, 00:37:06,VALID,917.46,VALID,0.0,VALID,97.519,VALID,0.004,VALID,19.366,VALID,272.0,VALID,0.117,
2017-04-11, 00:38:06,VALID,917.435,VALID,0.0,VALID,97.487,VALID,-0.013,VALID,19.365,VALID,317.0,VALID,0.162,
2017-04-11, 00:39:06,VALID,917.417,VALID,0.0,VALID,97.451,VALID,-0.004,VALID,19.378,VALID,337.0,VALID,0.115,
2017-04-11, 00:40:06,VALID,917.403,VALID,0.0,VALID,97.324,VALID,-0.002,VALID,19.384,VALID,310.0,VALID,0.14,
2017-04-11, 00:41:06,VALID,917.391,VALID,0.0,VALID,97.13,VALID,0.009,VALID,19.397,VALID,306.0,VALID,0.439,
2017-04-11, 00:42:06,VALID,917.372,VALID,0.0,VALID,96.726,VALID,0.001,VALID,19.41,VALID,4.0,VALID,0.562,
2017-04-11, 00:43:06,VALID,917.35,VALID,0.0,VALID,96.285,VALID,0.001,VALID,19.441,VALID,342.0,VALID,0.611,
2017-04-11, 00:44:06,VALID,917.324,VALID,0.0,VALID,96.145,VALID,0.005,VALID,19.485,VALID,294.0,VALID,0.265,
2017-04-11, 00:45:06,VALID,917.311,VALID,0.0,VALID,96.213,VALID,0.008,VALID,19.505,VALID,256.0,VALID,0.181,
2017-04-11, 00:46:06,VALID,917.291,VALID,0.0,VALID,96.364,VALID,0.013,VALID,19.495,VALID,260.0,VALID,0.113,
2017-04-11, 00:47:06,VALID,917.274,VALID,0.0,VALID,96.501,VALID,0.007,VALID,19.482,VALID,283.0,VALID,0.285,
2017-04-11, 00:48:06,VALID,917.257,VALID,0.0,VALID,96.57,VALID,-0.008,VALID,19.459,VALID,279.0,VALID,0.292,
2017-04-11, 00:49:06,VALID,917.257,VALID,0.0,VALID,96.58,VALID,-0.01,VALID,19.432,VALID,291.0,VALID,0.401,
2017-04-11, 00:50:06,VALID,917.232,VALID,0.0,VALID,96.127,VALID,0.002,VALID,19.406,VALID,313.0,VALID,0.595,
2017-04-11, 00:51:06,VALID,917.229,VALID,0.0,VALID,95.831,VALID,0.004,VALID,19.46,VALID,304.0,VALID,0.28,
2017-04-11, 00:52:06,VALID,917.2,VALID,0.0,VALID,95.712,VALID,0.011,VALID,19.494,VALID,342.0,VALID,0.498,
2017-04-11, 00:53:06,VALID,917.176,VALID,0.0,VALID,95.336,VALID,0.013,VALID,19.485,VALID,360.0,VALID,0.889,
2017-04-11, 00:54:06,VALID,917.175,VALID,0.0,VALID,94.74,VALID,0.009,VALID,19.498,VALID,4.0,VALID,1.146,
2017-04-11, 00:55:06,VALID,917.18,VALID,0.0,VALID,94.076,VALID,0.002,VALID,19.536,VALID,352.0,VALID,0.765,
2017-04-11, 00:56:06,VALID,917.162,VALID,0.0,VALID,93.778,VALID,0.016,VALID,19.575,VALID,345.0,VALID,0.282,
2017-04-11, 00:57:06,VALID,917.158,VALID,0.0,VALID,94.004,VALID,-0.008,VALID,19.606,VALID,303.0,VALID,0.085,
2017-04-11, 00:58:06,VALID,917.118,VALID,0.0,VALID,94.163,VALID,0.006,VALID,19.607,VALID,296.0,VALID,0.06,
2017-04-11, 00:59:06,VALID,917.102,VALID,0.0,VALID,94.025,VALID,0.003,VALID,19.577,VALID,355.0,VALID,0.421,
2017-04-11, 01:00:06,VALID,917.089,VALID,0.0,VALID,93.59,VALID,-0.007,VALID,19.56,VALID,9.0,VALID,0.641,
2017-04-11, 01:01:06,VALID,917.057,VALID,0.0,VALID,93.331,VALID,0.005,VALID,19.542,VALID,342.0,VALID,0.452,
2017-04-11, 01:02:06,VALID,917.044,VALID,0.0,VALID,93.403,VALID,-0.009,VALID,19.553,VALID,340.0,VALID,0.748,
2017-04-11, 01:03:06,VALID,917.024,VALID,0.0,VALID,93.162,VALID,0.005,VALID,19.61,VALID,341.0,VALID,0.716,
2017-04-11, 01:04:06,VALID,916.993,VALID,0.0,VALID,92.944,VALID,-0.002,VALID,19.671,VALID,331.0,VALID,0.334,
2017-04-11, 01:05:06,VALID,916.962,VALID,0.0,VALID,92.931,VALID,0.003,VALID,19.687,VALID,352.0,VALID,0.423,
2017-04-11, 01:06:06,VALID,916.937,VALID,0.0,VALID,92.925,VALID,-0.02,VALID,19.663,VALID,4.0,VALID,0.638,
2017-04-11, 01:07:06,VALID,916.911,VALID,0.0,VALID,92.79,VALID,-0.007,VALID,19.623,VALID,354.0,VALID,0.742,
2017-04-11, 01:08:06,VALID,916.893,VALID,0.0,VALID,92.932,VALID,-0.011,VALID,19.629,VALID,349.0,VALID,0.883,
2017-04-11, 01:09:06,VALID,916.871,VALID,0.0,VALID,92.915,VALID,0.009,VALID,19.642,VALID,354.0,VALID,0.906,
2017-04-11, 01:10:06,VALID,916.861,VALID,0.0,VALID,92.765,VALID,-0.008,VALID,19.677,VALID,344.0,VALID,0.825,
2017-04-11, 01:11:06,VALID,916.864,VALID,0.0,VALID,92.759,VALID,-0.009,VALID,19.684,VALID,355.0,VALID,0.786,
2017-04-11, 01:12:06,VALID,916.857,VALID,0.0,VALID,92.748,VALID,-0.007,VALID,19.672,VALID,352.0,VALID,0.579,
2017-04-11, 01:13:06,VALID,916.874,VALID,0.0,VALID,92.997,VALID,-0.021,VALID,19.671,VALID,327.0,VALID,0.445,
2017-04-11, 01:14:06,VALID,916.869,VALID,0.0,VALID,93.076,VALID,-0.016,VALID,19.677,VALID,4.0,VALID,1.108,
2017-04-11, 01:15:06,VALID,916.855,VALID,0.0,VALID,92.728,VALID,-0.018,VALID,19.709,VALID,11.0,VALID,1.272,
2017-04-11, 01:16:06,VALID,916.866,VALID,0.0,VALID,92.467,VALID,-0.013,VALID,19.737,VALID,355.0,VALID,0.97,
2017-04-11, 01:17:06,VALID,916.872,VALID,0.0,VALID,92.359,VALID,-0.025,VALID,19.754,VALID,347.0,VALID,1.011,
2017-04-11, 01:18:06,VALID,916.873,VALID,0.0,VALID,92.251,VALID,-0.018,VALID,19.779,VALID,353.0,VALID,1.006,
2017-04-11, 01:19:06,VALID,916.866,VALID,0.0,VALID,92.249,VALID,-0.012,VALID,19.775,VALID,8.0,VALID,0.607,
2017-04-11, 01:20:06,VALID,916.858,VALID,0.0,VALID,92.346,VALID,-0.025,VALID,19.739,VALID,6.0,VALID,0.689,
2017-04-11, 01:21:06,VALID,916.854,VALID,0.0,VALID,92.414,VALID,0.008,VALID,19.707,VALID,16.0,VALID,0.857,
2017-04-11, 01:22:06,VALID,916.858,VALID,0.0,VALID,92.581,VALID,0.009,VALID,19.672,VALID,23.0,VALID,0.705,
2017-04-11, 01:23:06,VALID,916.849,VALID,0.0,VALID,92.744,VALID,0.0,VALID,19.645,VALID,10.0,VALID,0.571,
2017-04-11, 01:24:06,VALID,916.843,VALID,0.0,VALID,92.785,VALID,0.0,VALID,19.637,VALID,3.0,VALID,0.63,
2017-04-11, 01:25:06,VALID,916.838,VALID,0.0,VALID,92.569,VALID,0.004,VALID,19.662,VALID,359.0,VALID,0.611,
2017-04-11, 01:26:06,VALID,916.83,VALID,0.0,VALID,92.349,VALID,0.013,VALID,19.701,VALID,9.0,VALID,0.395,
2017-04-11, 01:27:06,VALID,916.822,VALID,0.0,VALID,92.247,VALID,0.019,VALID,19.702,VALID,9.0,VALID,0.618,
2017-04-11, 01:28:06,VALID,916.815,VALID,0.0,VALID,92.208,VALID,0.004,VALID,19.715,VALID,17.0,VALID,0.201,
2017-04-11, 01:29:06,VALID,916.805,VALID,0.0,VALID,92.203,VALID,0.014,VALID,19.721,VALID,8.0,VALID,0.123,
2017-04-11, 01:30:06,VALID,916.78,VALID,0.0,VALID,92.127,VALID,0.001,VALID,19.725,VALID,351.0,VALID,0.183,
2017-04-11, 01:31:06,VALID,916.761,VALID,0.0,VALID,92.168,VALID,0.014,VALID,19.718,VALID,4.0,VALID,0.041,
2017-04-11, 01:32:06,VALID,916.729,VALID,0.0,VALID,92.23,VALID,0.012,VALID,19.704,VALID,22.0,VALID,0.202,
2017-04-11, 01:33:06,VALID,916.713,VALID,0.0,VALID,92.288,VALID,-0.006,VALID,19.681,VALID,34.0,VALID,0.073,
2017-04-11, 01:34:06,VALID,916.693,VALID,0.0,VALID,92.405,VALID,0.016,VALID,19.647,VALID,60.0,VALID,0.161,
2017-04-11, 01:35:06,VALID,916.678,VALID,0.0,VALID,92.577,VALID,-0.001,VALID,19.606,VALID,90.0,VALID,0.152,
2017-04-11, 01:36:06,VALID,916.658,VALID,0.0,VALID,92.67,VALID,0.005,VALID,19.579,VALID,112.0,VALID,0.214,
2017-04-11, 01:37:06,VALID,916.64,VALID,0.0,VALID,92.765,VALID,0.032,VALID,19.575,VALID,118.0,VALID,0.312,
2017-04-11, 01:38:06,VALID,916.624,VALID,0.0,VALID,92.743,VALID,0.012,VALID,19.602,VALID,129.0,VALID,0.32,
2017-04-11, 01:39:06,VALID,916.603,VALID,0.0,VALID,92.627,VALID,0.018,VALID,19.614,VALID,137.0,VALID,0.268,
2017-04-11, 01:40:06,VALID,916.587,VALID,0.0,VALID,92.622,VALID,0.006,VALID,19.597,VALID,152.0,VALID,0.185,
2017-04-11, 01:41:06,VALID,916.57,VALID,0.0,VALID,92.756,VALID,0.01,VALID,19.57,VALID,157.0,VALID,0.057,
2017-04-11, 01:42:06,VALID,916.549,VALID,0.0,VALID,92.86,VALID,0.004,VALID,19.54,VALID,189.0,VALID,0.233,
2017-04-11, 01:43:06,VALID,916.525,VALID,0.0,VALID,92.984,VALID,0.025,VALID,19.503,VALID,187.0,VALID,0.215,
2017-04-11, 01:44:06,VALID,916.498,VALID,0.0,VALID,93.145,VALID,0.03,VALID,19.478,VALID,186.0,VALID,0.107,
2017-04-11, 01:45:06,VALID,916.47,VALID,0.0,VALID,93.193,VALID,0.014,VALID,19.499,VALID,185.0,VALID,0.003,
2017-04-11, 01:46:06,VALID,916.446,VALID,0.0,VALID,93.147,VALID,0.017,VALID,19.541,VALID,184.0,VALID,0.0,
2017-04-11, 01:47:06,VALID,916.424,VALID,0.0,VALID,92.843,VALID,-0.003,VALID,19.528,VALID,184.0,VALID,0.0,
2017-04-11, 01:48:06,VALID,916.407,VALID,0.0,VALID,92.501,VALID,0.021,VALID,19.452,VALID,104.0,VALID,0.045,
2017-04-11, 01:49:06,VALID,916.389,VALID,0.0,VALID,93.101,VALID,0.017,VALID,19.39,VALID,55.0,VALID,0.345,
2017-04-11, 01:50:06,VALID,916.376,VALID,0.0,VALID,93.132,VALID,0.004,VALID,19.452,VALID,34.0,VALID,0.207,
2017-04-11, 01:51:06,VALID,916.35,VALID,0.0,VALID,92.633,VALID,0.004,VALID,19.544,VALID,2.0,VALID,0.355,
2017-04-11, 01:52:06,VALID,916.336,VALID,0.0,VALID,92.111,VALID,-0.014,VALID,19.65,VALID,358.0,VALID,0.071,
2017-04-11, 01:53:06,VALID,916.33,VALID,0.0,VALID,92.019,VALID,-0.027,VALID,19.686,VALID,358.0,VALID,0.054,
2017-04-11, 01:54:06,VALID,916.323,VALID,0.0,VALID,91.702,VALID,0.002,VALID,19.665,VALID,358.0,VALID,0.105,
2017-04-11, 01:55:06,VALID,916.303,VALID,0.0,VALID,91.601,VALID,-0.012,VALID,19.57,VALID,358.0,VALID,0.115,
2017-04-11, 01:56:06,VALID,916.29,VALID,0.0,VALID,91.96,VALID,-0.005,VALID,19.443,VALID,8.0,VALID,0.205,
2017-04-11, 01:57:06,VALID,916.278,VALID,0.0,VALID,92.438,VALID,-0.003,VALID,19.326,VALID,12.0,VALID,0.016,
2017-04-11, 01:58:06,VALID,916.268,VALID,0.0,VALID,93.156,VALID,-0.017,VALID,19.264,VALID,12.0,VALID,0.0,
2017-04-11, 01:59:06,VALID,916.257,VALID,0.0,VALID,93.584,VALID,-0.011,VALID,19.253,VALID,11.0,VALID,0.009,
2017-04-11, 02:00:06,VALID,916.247,VALID,0.0,VALID,93.694,VALID,-0.007,VALID,19.264,VALID,8.0,VALID,0.0,
2017-04-11, 02:01:06,VALID,916.244,VALID,0.0,VALID,93.59,VALID,-0.023,VALID,19.292,VALID,8.0,VALID,0.039,
2017-04-11, 02:02:06,VALID,916.231,VALID,0.0,VALID,93.463,VALID,-0.007,VALID,19.342,VALID,8.0,VALID,0.0,
2017-04-11, 02:03:06,VALID,916.199,VALID,0.0,VALID,93.3,VALID,-0.01,VALID,19.375,VALID,8.0,VALID,0.0,
2017-04-11, 02:04:06,VALID,916.18,VALID,0.0,VALID,93.154,VALID,-0.019,VALID,19.408,VALID,8.0,VALID,0.002,
2017-04-11, 02:05:06,VALID,916.159,VALID,0.0,VALID,93.122,VALID,-0.004,VALID,19.418,VALID,87.0,VALID,0.155,
2017-04-11, 02:06:06,VALID,916.144,VALID,0.0,VALID,93.211,VALID,-0.011,VALID,19.399,VALID,112.0,VALID,0.238,
2017-04-11, 02:07:06,VALID,916.112,VALID,0.0,VALID,93.455,VALID,-0.031,VALID,19.355,VALID,112.0,VALID,0.391,
2017-04-11, 02:08:06,VALID,916.092,VALID,0.0,VALID,93.672,VALID,-0.034,VALID,19.327,VALID,104.0,VALID,0.421,
2017-04-11, 02:09:06,VALID,916.078,VALID,0.0,VALID,93.632,VALID,-0.011,VALID,19.276,VALID,110.0,VALID,0.359,
2017-04-11, 02:10:06,VALID,916.069,VALID,0.0,VALID,93.669,VALID,-0.034,VALID,19.245,VALID,109.0,VALID,0.156,
2017-04-11, 02:11:06,VALID,916.07,VALID,0.0,VALID,93.74,VALID,-0.025,VALID,19.206,VALID,109.0,VALID,0.264,
2017-04-11, 02:12:06,VALID,916.073,VALID,0.0,VALID,94.078,VALID,-0.024,VALID,19.166,VALID,110.0,VALID,0.462,
2017-04-11, 02:13:06,VALID,916.074,VALID,0.0,VALID,94.42,VALID,-0.019,VALID,19.135,VALID,111.0,VALID,0.68,
2017-04-11, 02:14:06,VALID,916.076,VALID,0.0,VALID,94.57,VALID,-0.035,VALID,19.118,VALID,112.0,VALID,0.721,
2017-04-11, 02:15:06,VALID,916.071,VALID,0.0,VALID,94.645,VALID,-0.024,VALID,19.097,VALID,111.0,VALID,0.766,
2017-04-11, 02:16:06,VALID,916.079,VALID,0.0,VALID,94.623,VALID,-0.031,VALID,19.052,VALID,108.0,VALID,0.833,
2017-04-11, 02:17:06,VALID,916.069,VALID,0.0,VALID,94.883,VALID,-0.021,VALID,19.03,VALID,108.0,VALID,0.91,
2017-04-11, 02:18:06,VALID,916.064,VALID,0.0,VALID,95.036,VALID,-0.02,VALID,19.004,VALID,108.0,VALID,0.964,
2017-04-11, 02:19:06,VALID,916.033,VALID,0.0,VALID,95.13,VALID,-0.046,VALID,18.987,VALID,107.0,VALID,1.041,
2017-04-11, 02:20:06,VALID,916.01,VALID,0.0,VALID,95.369,VALID,-0.043,VALID,19.039,VALID,108.0,VALID,1.087,
2017-04-11, 02:21:06,VALID,916.002,VALID,0.0,VALID,95.138,VALID,0.006,VALID,19.091,VALID,114.0,VALID,1.17,
2017-04-11, 02:22:06,VALID,915.995,VALID,0.0,VALID,94.745,VALID,0.02,VALID,19.074,VALID,125.0,VALID,0.917,
2017-04-11, 02:23:06,VALID,915.979,VALID,0.0,VALID,94.523,VALID,0.012,VALID,19.013,VALID,127.0,VALID,0.762,
2017-04-11, 02:24:06,VALID,915.955,VALID,0.0,VALID,94.364,VALID,0.007,VALID,18.926,VALID,139.0,VALID,0.77,
2017-04-11, 02:25:06,VALID,915.946,VALID,0.0,VALID,95.036,VALID,0.015,VALID,18.905,VALID,145.0,VALID,1.09,
2017-04-11, 02:26:06,VALID,915.926,VALID,0.0,VALID,95.565,VALID,0.009,VALID,18.91,VALID,155.0,VALID,0.925,
2017-04-11, 02:27:06,VALID,915.907,VALID,0.0,VALID,96.117,VALID,0.011,VALID,18.943,VALID,153.0,VALID,0.945,
2017-04-11, 02:28:06,VALID,915.889,VALID,0.0,VALID,96.423,VALID,0.015,VALID,18.966,VALID,151.0,VALID,0.731,
2017-04-11, 02:29:06,VALID,915.879,VALID,0.0,VALID,96.358,VALID,0.028,VALID,18.949,VALID,141.0,VALID,0.582,
2017-04-11, 02:30:06,VALID,915.861,VALID,0.0,VALID,96.402,VALID,0.01,VALID,18.941,VALID,126.0,VALID,0.698,
2017-04-11, 02:31:06,VALID,915.849,VALID,0.0,VALID,96.379,VALID,0.002,VALID,18.93,VALID,129.0,VALID,0.674,
2017-04-11, 02:32:06,VALID,915.843,VALID,0.0,VALID,96.452,VALID,0.016,VALID,18.944,VALID,130.0,VALID,0.707,
2017-04-11, 02:33:06,VALID,915.831,VALID,0.0,VALID,96.386,VALID,0.011,VALID,18.941,VALID,123.0,VALID,0.622,
2017-04-11, 02:34:06,VALID,915.831,VALID,0.0,VALID,96.328,VALID,0.009,VALID,18.937,VALID,128.0,VALID,0.695,
2017-04-11, 02:35:06,VALID,915.83,VALID,0.0,VALID,96.254,VALID,0.006,VALID,18.94,VALID,128.0,VALID,0.648,
2017-04-11, 02:36:06,VALID,915.807,VALID,0.0,VALID,96.067,VALID,0.006,VALID,18.926,VALID,140.0,VALID,0.615,
2017-04-11, 02:37:06,VALID,915.795,VALID,0.0,VALID,95.821,VALID,0.007,VALID,18.881,VALID,125.0,VALID,0.538,
2017-04-11, 02:38:06,VALID,915.785,VALID,0.0,VALID,95.778,VALID,-0.011,VALID,18.837,VALID,118.0,VALID,0.504,
2017-04-11, 02:39:06,VALID,915.765,VALID,0.0,VALID,95.686,VALID,-0.011,VALID,18.798,VALID,114.0,VALID,0.488,
2017-04-11, 02:40:06,VALID,915.75,VALID,0.0,VALID,95.791,VALID,-0.008,VALID,18.779,VALID,111.0,VALID,0.443,
2017-04-11, 02:41:06,VALID,915.741,VALID,0.0,VALID,95.771,VALID,0.001,VALID,18.75,VALID,111.0,VALID,0.145,
2017-04-11, 02:42:06,VALID,915.744,VALID,0.0,VALID,95.729,VALID,-0.004,VALID,18.72,VALID,111.0,VALID,0.034,
2017-04-11, 02:43:06,VALID,915.752,VALID,0.0,VALID,95.837,VALID,0.006,VALID,18.71,VALID,111.0,VALID,0.0,
2017-04-11, 02:44:06,VALID,915.749,VALID,0.0,VALID,95.856,VALID,-0.001,VALID,18.703,VALID,111.0,VALID,0.0,
2017-04-11, 02:45:06,VALID,915.74,VALID,0.0,VALID,96.088,VALID,-0.01,VALID,18.724,VALID,111.0,VALID,0.0,
2017-04-11, 02:46:06,VALID,915.731,VALID,0.0,VALID,96.075,VALID,-0.001,VALID,18.724,VALID,115.0,VALID,0.04,
2017-04-11, 02:47:06,VALID,915.72,VALID,0.0,VALID,96.018,VALID,-0.02,VALID,18.718,VALID,125.0,VALID,0.052,
2017-04-11, 02:48:06,VALID,915.715,VALID,0.0,VALID,96.053,VALID,0.003,VALID,18.724,VALID,136.0,VALID,0.27,
2017-04-11, 02:49:06,VALID,915.689,VALID,0.0,VALID,96.275,VALID,0.003,VALID,18.761,VALID,139.0,VALID,0.298,
2017-04-11, 02:50:06,VALID,915.677,VALID,0.0,VALID,96.252,VALID,0.004,VALID,18.78,VALID,139.0,VALID,0.311,
2017-04-11, 02:51:06,VALID,915.651,VALID,0.0,VALID,96.138,VALID,0.004,VALID,18.777,VALID,139.0,VALID,0.271,
2017-04-11, 02:52:06,VALID,915.641,VALID,0.0,VALID,96.036,VALID,-0.013,VALID,18.749,VALID,139.0,VALID,0.169,
2017-04-11, 02:53:06,VALID,915.625,VALID,0.0,VALID,95.55,VALID,-0.012,VALID,18.664,VALID,139.0,VALID,0.061,
2017-04-11, 02:54:06,VALID,915.634,VALID,0.0,VALID,95.683,VALID,0.003,VALID,18.622,VALID,139.0,VALID,0.084,
2017-04-11, 02:55:06,VALID,915.637,VALID,0.0,VALID,96.086,VALID,-0.004,VALID,18.629,VALID,139.0,VALID,0.065,
2017-04-11, 02:56:06,VALID,915.642,VALID,0.0,VALID,96.283,VALID,0.0,VALID,18.642,VALID,139.0,VALID,0.0,
2017-04-11, 02:57:06,VALID,915.638,VALID,0.0,VALID,96.164,VALID,-0.003,VALID,18.618,VALID,139.0,VALID,0.036,
2017-04-11, 02:58:06,VALID,915.635,VALID,0.0,VALID,96.144,VALID,-0.029,VALID,18.607,VALID,139.0,VALID,0.176,
2017-04-11, 02:59:06,VALID,915.614,VALID,0.0,VALID,96.419,VALID,-0.01,VALID,18.642,VALID,139.0,VALID,0.214,
2017-04-11, 03:00:06,VALID,915.599,VALID,0.0,VALID,96.403,VALID,-0.023,VALID,18.651,VALID,118.0,VALID,0.231,
2017-04-11, 03:01:06,VALID,915.57,VALID,0.0,VALID,95.286,VALID,-0.027,VALID,18.499,VALID,55.0,VALID,0.455,
2017-04-11, 03:02:06,VALID,915.551,VALID,0.0,VALID,95.379,VALID,-0.026,VALID,18.411,VALID,44.0,VALID,0.459,
2017-04-11, 03:03:06,VALID,915.546,VALID,0.0,VALID,96.103,VALID,-0.003,VALID,18.406,VALID,44.0,VALID,0.239,
2017-04-11, 03:04:06,VALID,915.535,VALID,0.0,VALID,95.965,VALID,-0.015,VALID,18.348,VALID,42.0,VALID,0.181,
2017-04-11, 03:05:06,VALID,915.531,VALID,0.0,VALID,96.073,VALID,-0.005,VALID,18.315,VALID,41.0,VALID,0.091,
2017-04-11, 03:06:06,VALID,915.52,VALID,0.0,VALID,96.434,VALID,-0.005,VALID,18.331,VALID,40.0,VALID,0.246,
2017-04-11, 03:07:06,VALID,915.5,VALID,0.0,VALID,96.816,VALID,0.005,VALID,18.382,VALID,41.0,VALID,0.371,
2017-04-11, 03:08:06,VALID,915.486,VALID,0.0,VALID,96.99,VALID,0.003,VALID,18.427,VALID,53.0,VALID,0.447,
2017-04-11, 03:09:06,VALID,915.454,VALID,0.0,VALID,96.956,VALID,0.012,VALID,18.435,VALID,63.0,VALID,0.39,
2017-04-11, 03:10:06,VALID,915.441,VALID,0.0,VALID,96.54,VALID,-0.009,VALID,18.353,VALID,104.0,VALID,0.381,
2017-04-11, 03:11:06,VALID,915.415,VALID,0.0,VALID,95.835,VALID,-0.019,VALID,18.216,VALID,150.0,VALID,0.691,
2017-04-11, 03:12:06,VALID,915.393,VALID,0.0,VALID,96.418,VALID,0.001,VALID,18.243,VALID,146.0,VALID,0.943,
2017-04-11, 03:13:06,VALID,915.364,VALID,0.0,VALID,97.579,VALID,0.006,VALID,18.47,VALID,138.0,VALID,0.812,
2017-04-11, 03:14:06,VALID,915.342,VALID,0.0,VALID,97.451,VALID,0.005,VALID,18.506,VALID,133.0,VALID,0.741,
2017-04-11, 03:15:06,VALID,915.322,VALID,0.0,VALID,97.173,VALID,0.01,VALID,18.468,VALID,137.0,VALID,0.555,
2017-04-11, 03:16:06,VALID,915.32,VALID,0.0,VALID,97.399,VALID,-0.0,VALID,18.502,VALID,119.0,VALID,0.525,
2017-04-11, 03:17:06,VALID,915.322,VALID,0.0,VALID,97.595,VALID,-0.014,VALID,18.551,VALID,131.0,VALID,0.405,
2017-04-11, 03:18:06,VALID,915.341,VALID,0.0,VALID,97.459,VALID,0.011,VALID,18.507,VALID,129.0,VALID,0.052,
2017-04-11, 03:19:06,VALID,915.346,VALID,0.0,VALID,96.955,VALID,0.014,VALID,18.396,VALID,129.0,VALID,0.0,
2017-04-11, 03:20:06,VALID,915.367,VALID,0.0,VALID,97.172,VALID,0.007,VALID,18.407,VALID,129.0,VALID,0.051,
2017-04-11, 03:21:06,VALID,915.373,VALID,0.0,VALID,97.605,VALID,-0.016,VALID,18.504,VALID,129.0,VALID,0.042,
2017-04-11, 03:22:06,VALID,915.391,VALID,0.0,VALID,97.52,VALID,-0.036,VALID,18.482,VALID,129.0,VALID,0.058,
2017-04-11, 03:23:06,VALID,915.403,VALID,0.0,VALID,97.256,VALID,-0.035,VALID,18.39,VALID,129.0,VALID,0.068,
2017-04-11, 03:24:06,VALID,915.413,VALID,0.0,VALID,97.086,VALID,-0.016,VALID,18.311,VALID,127.0,VALID,0.011,
2017-04-11, 03:25:06,VALID,915.421,VALID,0.0,VALID,97.36,VALID,-0.02,VALID,18.345,VALID,87.0,VALID,0.156,
2017-04-11, 03:26:06,VALID,915.45,VALID,0.0,VALID,97.461,VALID,-0.025,VALID,18.345,VALID,63.0,VALID,0.481,
2017-04-11, 03:27:06,VALID,915.461,VALID,0.0,VALID,97.242,VALID,-0.042,VALID,18.271,VALID,40.0,VALID,0.36,
2017-04-11, 03:28:06,VALID,915.453,VALID,0.0,VALID,97.041,VALID,-0.029,VALID,18.213,VALID,329.0,VALID,0.454,
2017-04-11, 03:29:06,VALID,915.462,VALID,0.0,VALID,97.855,VALID,-0.02,VALID,18.399,VALID,308.0,VALID,0.405,
2017-04-11, 03:30:06,VALID,915.45,VALID,0.0,VALID,97.857,VALID,-0.032,VALID,18.495,VALID,307.0,VALID,0.275,
2017-04-11, 03:31:06,VALID,915.447,VALID,0.0,VALID,97.75,VALID,-0.022,VALID,18.532,VALID,353.0,VALID,0.197,
2017-04-11, 03:32:06,VALID,915.417,VALID,0.0,VALID,97.49,VALID,-0.033,VALID,18.498,VALID,6.0,VALID,0.238,
2017-04-11, 03:33:06,VALID,915.407,VALID,0.0,VALID,97.239,VALID,-0.01,VALID,18.438,VALID,4.0,VALID,0.256,
2017-04-11, 03:34:06,VALID,915.397,VALID,0.0,VALID,97.5,VALID,-0.02,VALID,18.484,VALID,344.0,VALID,0.262,
2017-04-11, 03:35:06,VALID,915.392,VALID,0.0,VALID,97.477,VALID,-0.031,VALID,18.519,VALID,324.0,VALID,0.33,
2017-04-11, 03:36:06,VALID,915.383,VALID,0.0,VALID,97.421,VALID,0.01,VALID,18.533,VALID,318.0,VALID,0.131,
2017-04-11, 03:37:06,VALID,915.379,VALID,0.0,VALID,97.389,VALID,0.008,VALID,18.548,VALID,318.0,VALID,0.107,
2017-04-11, 03:38:06,VALID,915.364,VALID,0.0,VALID,96.934,VALID,0.006,VALID,18.484,VALID,317.0,VALID,0.12,
2017-04-11, 03:39:06,VALID,915.367,VALID,0.0,VALID,97.125,VALID,0.002,VALID,18.49,VALID,317.0,VALID,0.046,